DW5434 Weather Reports


Display with metric or nautical units.
time (UTC)temp
F
wind
direction
speed
MPH
gust
MPH
rain 1hr
in
rain 24hr
in
rain mn
in
humidity
%
barometer
mb
20260505124514 0 0.0 0.0 0.00 0.00 0.00 1008.2
20260505123009 0 0.0 0.0 0.00 0.00 0.00 1008.2
20260505121507 55 240 6.0 9.0 0.00 0.00 0.00 68 1008.1
20260505120003 56 245 7.0 11.0 0.00 0.00 0.00 67 1007.9
20260505114602 57 255 8.0 13.0 0.00 0.00 0.00 67 1007.8
20260505113101 56 252 9.0 13.0 0.00 0.00 0.00 67 1007.7
20260505111602 57 243 8.0 12.0 0.00 0.00 0.00 66 1007.8
20260505110111 58 256 10.0 13.0 0.00 0.00 0.00 65 1007.6
20260505101551 60 252 9.0 12.0 0.00 0.00 0.00 62 1007.6
20260505100050 59 256 8.0 13.0 0.00 0.00 0.00 63 1007.4
20260505094548 60 250 9.0 14.0 0.00 0.00 0.00 62 1007.1
20260505093049 60 249 10.0 15.0 0.00 0.00 0.00 63 1007.1
20260505091553 59 259 9.0 13.0 0.00 0.00 0.00 64 1007.2
20260505090046 59 231 9.0 11.0 0.00 0.00 0.00 64 1007.2
20260505084553 58 251 9.0 12.0 0.00 0.00 0.00 65 1007.2
20260505083055 59 233 9.0 12.0 0.00 0.00 0.00 64 1007.1
20260505081543 58 250 8.0 12.0 0.00 0.00 0.00 65 1007.2
20260505080044 58 236 7.0 10.0 0.00 0.00 0.00 64 1007.2
20260505074539 60 225 9.0 10.0 0.00 0.00 0.00 62 1007.0
20260505073037 59 224 6.0 10.0 0.00 0.00 0.00 62 1007.1
20260505071535 59 236 6.0 11.0 0.00 0.00 0.00 62 1007.1
20260505070032 59 207 6.0 11.0 0.00 0.00 0.00 63 1006.8
20260505064537 59 201 7.0 11.0 0.00 0.00 0.00 61 1006.8
20260505063031 58 181 7.0 9.0 0.00 0.00 0.00 64 1006.9
20260505061530 58 246 1.0 4.0 0.00 0.00 0.00 66 1006.9
20260505060029 59 226 6.0 8.0 0.00 0.00 0.00 64 1006.8
20260505054543 59 197 2.0 8.0 0.00 0.00 0.00 62 1006.7
20260505053026 61 204 6.0 8.0 0.00 0.00 0.00 59 1006.7
20260505051524 61 208 4.0 7.0 0.00 0.00 0.00 56 1006.7
20260505041520 63 276 6.0 9.0 0.00 0.00 0.00 52 1006.1
20260505040021 63 273 7.0 9.0 0.00 0.00 0.00 51 1005.9
20260505034525 64 270 6.0 8.0 0.00 0.00 0.00 49 1005.8
20260505033018 66 284 6.0 9.0 0.00 0.00 0.00 45 1005.7
20260505031517 67 282 5.0 8.0 0.00 0.00 0.00 40 1005.5
20260505030036 69 259 2.0 2.0 0.00 0.00 0.00 38 1005.2
20260505024517 71 256 1.0 2.0 0.00 0.00 0.00 35 1005.2
20260505023014 73 356 2.0 3.0 0.00 0.00 0.00 32 1005.2
20260505021518 75 35 2.0 4.0 0.00 0.00 0.00 30 1005.2
20260505020013 75 44 3.0 6.0 0.00 0.00 0.00 28 1005.3
20260505014519 76 30 4.0 8.0 0.00 0.00 0.00 26 1005.4
20260505013018 76 46 5.0 9.0 0.00 0.00 0.00 26 1005.5
20260505011509 76 56 6.0 9.0 0.00 0.00 0.00 25 1005.5
20260505010008 76 41 4.0 8.0 0.00 0.00 0.00 24 1005.7
20260505004520 77 3 6.0 11.0 0.00 0.00 0.00 24 1005.8
20260505003006 77 18 8.0 12.0 0.00 0.00 0.00 23 1005.8
20260505001505 77 27 7.0 10.0 0.00 0.00 0.00 24 1005.8
20260505000004 77 20 7.0 11.0 0.00 0.00 0.00 24 1005.9
20260504234505 77 5 5.0 11.0 0.00 0.00 0.00 23 1006.0
20260504233002 77 37 5.0 11.0 0.00 0.00 0.00 24 1006.1
20260504231626 77 328 7.0 12.0 0.00 0.00 0.00 25 1006.2
20260504230100 77 1 7.0 12.0 0.00 0.00 0.00 26 1006.2
20260504224613 77 16 7.0 12.0 0.00 0.00 0.00 24 1006.3
20260504223057 77 46 10.0 14.0 0.00 0.00 0.00 25 1006.4
20260504221644 77 54 7.0 12.0 0.00 0.00 0.00 26 1006.5
20260504220054 77 349 9.0 14.0 0.00 0.00 0.00 26 1006.7
20260504214552 76 15 10.0 14.0 0.00 0.00 0.00 26 1006.8
20260504213057 77 48 8.0 14.0 0.00 0.00 0.00 25 1006.8
20260504211550 77 343 6.0 11.0 0.00 0.00 0.00 27 1006.8
20260504210051 76 49 6.0 13.0 0.00 0.00 0.00 24 1007.0
20260504204546 76 93 3.0 11.0 0.00 0.00 0.00 29 1007.1
20260504203046 76 335 5.0 10.0 0.00 0.00 0.00 29 1007.1
20260504201544 76 332 5.0 11.0 0.00 0.00 0.00 30 1007.3
20260504200042 75 333 4.0 10.0 0.00 0.00 0.00 30 1007.3
20260504194549 74 26 5.0 11.0 0.00 0.00 0.00 31 1007.5
20260504193045 75 47 5.0 12.0 0.00 0.00 0.00 31 1007.6
20260504191604 74 347 9.0 14.0 0.00 0.00 0.00 32 1007.7
20260504190040 74 15 4.0 13.0 0.00 0.00 0.00 32 1007.8
20260504184544 74 318 6.0 13.0 0.00 0.00 0.00 32 1007.8
20260504183035 74 323 5.0 15.0 0.00 0.00 0.00 33 1007.9
20260504181534 73 323 5.0 12.0 0.00 0.00 0.00 32 1007.9
20260504180036 73 338 5.0 9.0 0.00 0.00 0.00 32 1007.9
20260504174531 73 333 6.0 10.0 0.00 0.00 0.00 32 1008.0
20260504173028 72 333 2.0 10.0 0.00 0.00 0.00 33 1008.1
20260504171528 72 335 6.0 9.0 0.00 0.00 0.00 34 1008.1
20260504140105 61 200 8.0 14.0 0.00 0.00 0.00 45 1007.9